Regional Weather Roundup
Issued by NWS State College, PA

Home | Current Version | Previous Version | Text Only | Print | Product List | Glossary Off
Versions: 1 2 3 4 5 6 7 8 9 10 11 12 13 14 15 16 17 18 19 20 21 22 23 24 25 26 27 28 29 30 31 32 33 34 35 36 37 38 39 40 41 42 43 44 45 46 47 48 49 50

000
ASUS41 KCTP 141110
RWRCTP

REGIONAL WEATHER ROUNDUP
NATIONAL WEATHER SERVICE STATE COLLEGE PA
600 AM EST SUN FEB 14 2016

Note: "fair" indicates few or no clouds below 12,000 feet with no
significant weather and/or obstructions to visibility.

* = STATION THAT DOES NOT REPORT PRECIPITATION /E.G. RAIN...SNOW...ETC/
    THUNDER OR FOG.

PAZ002>004-007>009-013>016-020>023-029>032-141200-
WESTERN PENNSYLVANIA

CITY           SKY/WX    TMP DP  RH WIND       PRES   REMARKS
ERIE           CLOUDY    11   1  64 N6        30.46R WCI   1
MEADVILLE      LGT SNOW   6   1  80 W3        30.38R
FRANKLIN*      CLOUDY     0  -8  71 CALM      30.39R
NEW CASTLE     FAIR      -6 -10  83 CALM      30.45R
BEAVER COUNTY  NOT AVBL
BUTLER*        CLOUDY    -2  -6  84 CALM      30.44S
PITTSBURGH INT FLURRIES  -2  -6  83 CALM      30.43R
PITTSBURGH     CLOUDY     5   0  79 W7        30.42R WCI  -7
INDIANA*       MOCLDY    -6  -9  84 CALM      30.44R
LATROBE        LGT SNOW  -2  -6  84 SW5       30.44S WCI -12
WASHINGTON CO* CLOUDY    -8 -11  84 CALM      30.43R
$$

PAZ004>006-010>012-017>019-024>028-033>037-041-042-045-046-049>053-141200-
CENTRAL PENNSYLVANIA

CITY           SKY/WX    TMP DP  RH WIND       PRES   REMARKS
BRADFORD       MOCLDY    -6 -11  79 NW3       30.29R
DUBOIS         MOCLDY    -2  -7  79 W3        30.34R
CLEARFIELD     PTCLDY     1  -6  72 W8        30.38R WCI -13
JOHNSTOWN      PTCLDY     0  -7  72 W13       30.28R WCI -18
ALTOONA        MOCLDY     4  -4  69 N5        30.38R WCI  -5
STATE COLLEGE  PTCLDY     1  -4  78 W5        30.39R WCI  -8
WILLIAMSPORT   PTCLDY     1 -12  54 MISG      30.47R
SELINSGROVE    PTCLDY     2  -6  69 CALM      30.47R
FT INDIANTOWN  PTCLDY     6  -8  50 VRB5G21   30.45R WCI  -2
CAPITAL CITY   PTCLDY     9  -6  50 W7        30.47R WCI  -2
HARRISBURG     PTCLDY     9  -4  55 NW12      30.47R WCI  -6
YORK           PTCLDY    -9 -14  78 NW3       30.45R
$$

PAZ038>040-043-044-047-048-054-055-060>062-067>071-141200-
EASTERN PENNSYLVANIA

CITY           SKY/WX    TMP DP  RH WIND       PRES   REMARKS
SCRANTON       CLEAR    N/A N/A N/A N9        30.41R
MOUNT POCONO   CLEAR    -10 -17  71 NW10G22   30.21R WCI -29
ALLENTOWN      CLEAR      3 -11  52 NW10      30.45R WCI -12
QUAKERTOWN*    SUNNY      3 -11  51 CALM      30.44R
READING        PTCLDY     5 -10  50 N15       30.46R WCI -13
LANCASTER      PTCLDY     5  -7  57 CALM      30.46R
COATESVILLE    MOSUNNY    5  -8  56 NW8       30.43R WCI  -8
POTTSTOWN      PTCLDY     4 -10  52 N9        30.47R WCI -10
BLUE BELL        N/A      5  -9  51 NW5       30.45R WCI  -4
DOYLESTOWN     CLEAR      2 -12  52 N12G18    30.43R WCI -15
WILLOW GROVE   NOT AVBL
NORTH PHILA    CLEAR      8 -10  43 VRB5      30.49R WCI   0
PHILADELPHIA   PTCLDY    10 -10  40 NW9       30.49R WCI  -3
$$



USA.gov is the U.S. government's official web portal to all federal, state and local government web resources and services.